contact:dominique.lefevre@mio.osupytheas.fr, maurice.libes@osupytheas.fr, didier.mallarino@osupytheas.fr
Project:EMSO http://www.emso-fr.org/EMSO-France
Depth: 2436.0 m
Title:EMSO Ligure Ouest : Data MII capteur OXYGEN
DateTime,Latitude,Longitude,Optode-Type,Optode_Serial,Oxygen,Saturation_Oxygen,Temperature
DateTime,Latitude,Longitude,Optode-Type,Optode_Serial,µmol.l-1,%,degC
2017-10-26T00:01:37,42.805,6.029,4330,1995,194.558,59.498,13.288
2017-10-26T00:04:37,42.805,6.029,4330,1995,194.708,59.543,13.287
2017-10-26T00:07:37,42.805,6.029,4330,1995,194.939,59.614,13.287
2017-10-26T00:10:37,42.805,6.029,4330,1995,194.930,59.611,13.287
2017-10-26T00:13:37,42.805,6.029,4330,1995,194.834,59.582,13.287
2017-10-26T00:16:37,42.805,6.029,4330,1995,194.740,59.553,13.287
2017-10-26T00:19:37,42.805,6.029,4330,1995,194.549,59.494,13.287
2017-10-26T00:22:37,42.805,6.029,4330,1995,194.328,59.426,13.287
2017-10-26T00:25:37,42.805,6.029,4330,1995,194.216,59.392,13.287
2017-10-26T00:28:37,42.805,6.029,4330,1995,194.435,59.459,13.286
2017-10-26T00:31:37,42.805,6.029,4330,1995,194.549,59.494,13.286
2017-10-26T00:34:37,42.805,6.029,4330,1995,194.499,59.479,13.287
2017-10-26T00:37:37,42.805,6.029,4330,1995,194.376,59.441,13.286
2017-10-26T00:40:37,42.805,6.029,4330,1995,194.156,59.374,13.287
2017-10-26T00:43:37,42.805,6.029,4330,1995,194.337,59.429,13.286
2017-10-26T00:46:37,42.805,6.029,4330,1995,194.386,59.444,13.287
2017-10-26T00:49:37,42.805,6.029,4330,1995,194.732,59.551,13.287
2017-10-26T00:52:37,42.805,6.029,4330,1995,194.471,59.470,13.286
2017-10-26T00:55:37,42.805,6.029,4330,1995,194.431,59.458,13.287
2017-10-26T00:58:37,42.805,6.029,4330,1995,194.477,59.472,13.287
2017-10-26T01:01:37,42.805,6.029,4330,1995,194.434,59.459,13.287
2017-10-26T01:04:37,42.805,6.029,4330,1995,194.445,59.462,13.287
2017-10-26T01:07:37,42.805,6.029,4330,1995,194.466,59.469,13.287
2017-10-26T01:10:37,42.805,6.029,4330,1995,194.727,59.548,13.286
2017-10-26T01:13:37,42.805,6.029,4330,1995,194.687,59.536,13.287
2017-10-26T01:16:37,42.805,6.029,4330,1995,194.689,59.539,13.288
2017-10-26T01:19:37,42.805,6.029,4330,1995,194.860,59.590,13.288
2017-10-26T01:22:37,42.805,6.029,4330,1995,194.871,59.593,13.287
2017-10-26T01:25:37,42.805,6.029,4330,1995,194.873,59.594,13.287
2017-10-26T01:28:37,42.805,6.029,4330,1995,194.566,59.500,13.288
2017-10-26T01:31:37,42.805,6.029,4330,1995,194.907,59.604,13.287
2017-10-26T01:34:37,42.805,6.029,4330,1995,194.792,59.569,13.287
2017-10-26T01:37:37,42.805,6.029,4330,1995,194.888,59.598,13.287
2017-10-26T01:40:37,42.805,6.029,4330,1995,194.645,59.523,13.286
2017-10-26T01:43:37,42.805,6.029,4330,1995,194.654,59.526,13.287
2017-10-26T01:46:37,42.805,6.029,4330,1995,194.722,59.547,13.287
2017-10-26T01:49:37,42.805,6.029,4330,1995,194.534,59.490,13.287
2017-10-26T01:52:37,42.805,6.029,4330,1995,194.343,59.432,13.287
2017-10-26T01:55:37,42.805,6.029,4330,1995,194.437,59.461,13.287
2017-10-26T01:58:37,42.805,6.029,4330,1995,194.365,59.438,13.287
2017-10-26T02:01:37,42.805,6.029,4330,1995,194.531,59.489,13.287
2017-10-26T02:04:37,42.805,6.029,4330,1995,194.632,59.520,13.287
2017-10-26T02:07:37,42.805,6.029,4330,1995,194.622,59.516,13.287
2017-10-26T02:10:37,42.805,6.029,4330,1995,194.701,59.540,13.287
2017-10-26T02:13:37,42.805,6.029,4330,1995,194.432,59.458,13.286
2017-10-26T02:16:37,42.805,6.029,4330,1995,194.521,59.487,13.288
2017-10-26T02:19:37,42.805,6.029,4330,1995,194.455,59.466,13.288
2017-10-26T02:22:37,42.805,6.029,4330,1995,194.431,59.459,13.288
2017-10-26T02:25:37,42.805,6.029,4330,1995,194.417,59.454,13.287
2017-10-26T02:28:37,42.805,6.029,4330,1995,194.475,59.471,13.287
2017-10-26T02:31:37,42.805,6.029,4330,1995,194.531,59.489,13.287
2017-10-26T02:34:37,42.805,6.029,4330,1995,194.530,59.489,13.287
2017-10-26T02:37:37,42.805,6.029,4330,1995,194.573,59.502,13.287
2017-10-26T02:40:37,42.805,6.029,4330,1995,194.267,59.409,13.287
2017-10-26T02:43:37,42.805,6.029,4330,1995,194.381,59.444,13.287
2017-10-26T02:46:37,42.805,6.029,4330,1995,194.604,59.511,13.287
2017-10-26T02:49:37,42.805,6.029,4330,1995,194.273,59.410,13.287
2017-10-26T02:52:37,42.805,6.029,4330,1995,194.368,59.439,13.287
2017-10-26T02:55:37,42.805,6.029,4330,1995,194.645,59.523,13.287
2017-10-26T02:58:37,42.805,6.029,4330,1995,194.778,59.565,13.288
2017-10-26T03:01:37,42.805,6.029,4330,1995,194.577,59.502,13.286
2017-10-26T03:04:37,42.805,6.029,4330,1995,195.004,59.633,13.287
2017-10-26T03:07:37,42.805,6.029,4330,1995,195.132,59.675,13.289
2017-10-26T03:10:37,42.805,6.029,4330,1995,195.096,59.662,13.287
2017-10-26T03:13:37,42.805,6.029,4330,1995,194.861,59.590,13.287
2017-10-26T03:16:37,42.805,6.029,4330,1995,194.774,59.562,13.286
2017-10-26T03:19:37,42.805,6.029,4330,1995,194.887,59.597,13.287
2017-10-26T03:22:37,42.805,6.029,4330,1995,195.001,59.633,13.287
2017-10-26T03:25:37,42.805,6.029,4330,1995,195.042,59.645,13.287
2017-10-26T03:28:37,42.805,6.029,4330,1995,194.835,59.582,13.287
2017-10-26T03:31:37,42.805,6.029,4330,1995,194.832,59.581,13.287
2017-10-26T03:34:37,42.805,6.029,4330,1995,195.324,59.731,13.286
2017-10-26T03:37:37,42.805,6.029,4330,1995,195.377,59.747,13.287
2017-10-26T03:40:37,42.805,6.029,4330,1995,195.387,59.750,13.287
2017-10-26T03:43:37,42.805,6.029,4330,1995,194.995,59.632,13.288
2017-10-26T03:46:37,42.805,6.029,4330,1995,195.033,59.643,13.288
2017-10-26T03:49:37,42.805,6.029,4330,1995,194.564,59.502,13.289
2017-10-26T03:52:37,42.805,6.029,4330,1995,194.773,59.564,13.288
2017-10-26T03:55:37,42.805,6.029,4330,1995,195.071,59.658,13.290
2017-10-26T03:58:37,42.805,6.029,4330,1995,195.007,59.638,13.289
2017-10-26T04:01:37,42.805,6.029,4330,1995,195.223,59.701,13.287
2017-10-26T04:04:37,42.805,6.029,4330,1995,195.176,59.687,13.288
2017-10-26T04:07:37,42.805,6.029,4330,1995,195.794,59.877,13.288
2017-10-26T04:10:37,42.805,6.029,4330,1995,195.452,59.774,13.290
2017-10-26T04:13:37,42.805,6.029,4330,1995,195.418,59.761,13.288
2017-10-26T04:16:37,42.805,6.029,4330,1995,195.226,59.703,13.288
2017-10-26T04:19:37,42.805,6.029,4330,1995,195.690,59.845,13.288
2017-10-26T04:22:37,42.805,6.029,4330,1995,195.926,59.916,13.287
2017-10-26T04:25:37,42.805,6.029,4330,1995,195.996,59.937,13.287
2017-10-26T04:28:37,42.805,6.029,4330,1995,196.346,60.044,13.287
2017-10-26T04:31:37,42.805,6.029,4330,1995,196.414,60.066,13.288
2017-10-26T04:34:37,42.805,6.029,4330,1995,195.885,59.903,13.287
2017-10-26T04:37:37,42.805,6.029,4330,1995,195.754,59.863,13.287
2017-10-26T04:40:37,42.805,6.029,4330,1995,195.469,59.777,13.288
2017-10-26T04:43:37,42.805,6.029,4330,1995,195.157,59.681,13.287
2017-10-26T04:46:37,42.805,6.029,4330,1995,195.376,59.747,13.287
2017-10-26T04:49:37,42.805,6.029,4330,1995,195.383,59.749,13.287
2017-10-26T04:52:37,42.805,6.029,4330,1995,195.508,59.787,13.287
2017-10-26T04:55:37,42.805,6.029,4330,1995,195.324,59.732,13.287
2017-10-26T04:58:37,42.805,6.029,4330,1995,195.355,59.742,13.288
2017-10-26T05:01:37,42.805,6.029,4330,1995,195.105,59.664,13.287
2017-10-26T05:04:37,42.805,6.029,4330,1995,194.986,59.629,13.287
2017-10-26T05:07:37,42.805,6.029,4330,1995,195.085,59.659,13.288
2017-10-26T05:10:37,42.805,6.029,4330,1995,195.009,59.636,13.288
2017-10-26T05:13:37,42.805,6.029,4330,1995,194.722,59.548,13.288
2017-10-26T05:16:37,42.805,6.029,4330,1995,195.014,59.638,13.288
2017-10-26T05:19:37,42.805,6.029,4330,1995,194.918,59.610,13.289
2017-10-26T05:22:37,42.805,6.029,4330,1995,194.850,59.588,13.288
2017-10-26T05:25:37,42.805,6.029,4330,1995,195.145,59.677,13.287
2017-10-26T05:28:37,42.805,6.029,4330,1995,195.078,59.656,13.287
2017-10-26T05:31:37,42.805,6.029,4330,1995,195.367,59.745,13.287
2017-10-26T05:34:37,42.805,6.029,4330,1995,195.339,59.736,13.287
2017-10-26T05:37:37,42.805,6.029,4330,1995,195.517,59.793,13.289
2017-10-26T05:40:37,42.805,6.029,4330,1995,195.538,59.797,13.287
2017-10-26T05:43:37,42.805,6.029,4330,1995,195.583,59.811,13.287
2017-10-26T05:46:37,42.805,6.029,4330,1995,195.658,59.833,13.287
2017-10-26T05:49:37,42.805,6.029,4330,1995,195.790,59.874,13.287
2017-10-26T05:52:37,42.805,6.029,4330,1995,195.445,59.769,13.288
2017-10-26T05:55:37,42.805,6.029,4330,1995,195.414,59.760,13.288
2017-10-26T05:58:37,42.805,6.029,4330,1995,195.015,59.638,13.288
2017-10-26T06:01:37,42.805,6.029,4330,1995,195.279,59.718,13.288
2017-10-26T06:04:37,42.805,6.029,4330,1995,195.030,59.642,13.288
2017-10-26T06:07:37,42.805,6.029,4330,1995,195.187,59.691,13.288
2017-10-26T06:10:37,42.805,6.029,4330,1995,195.278,59.718,13.287
2017-10-26T06:13:37,42.805,6.029,4330,1995,195.151,59.678,13.287
2017-10-26T06:16:37,42.805,6.029,4330,1995,195.243,59.707,13.287
2017-10-26T06:19:37,42.805,6.029,4330,1995,195.367,59.745,13.287
2017-10-26T06:22:37,42.805,6.029,4330,1995,195.558,59.803,13.287
2017-10-26T06:25:37,42.805,6.029,4330,1995,195.626,59.824,13.288
2017-10-26T06:28:37,42.805,6.029,4330,1995,195.677,59.839,13.287
2017-10-26T06:31:37,42.805,6.029,4330,1995,195.944,59.921,13.287
2017-10-26T06:34:37,42.805,6.029,4330,1995,195.468,59.775,13.287
2017-10-26T06:37:37,42.805,6.029,4330,1995,195.459,59.773,13.288
2017-10-26T06:40:37,42.805,6.029,4330,1995,195.766,59.868,13.288
2017-10-26T06:43:37,42.805,6.029,4330,1995,195.312,59.729,13.288
2017-10-26T06:46:37,42.805,6.029,4330,1995,195.118,59.670,13.288
2017-10-26T06:49:37,42.805,6.029,4330,1995,194.791,59.569,13.288
2017-10-26T06:52:37,42.805,6.029,4330,1995,195.067,59.653,13.287
2017-10-26T06:55:37,42.805,6.029,4330,1995,195.088,59.660,13.287
2017-10-26T06:58:37,42.805,6.029,4330,1995,195.294,59.723,13.287
2017-10-26T07:01:37,42.805,6.029,4330,1995,195.528,59.794,13.287
2017-10-26T07:04:37,42.805,6.029,4330,1995,195.194,59.691,13.287
2017-10-26T07:07:37,42.805,6.029,4330,1995,195.066,59.653,13.287
2017-10-26T07:10:37,42.805,6.029,4330,1995,195.246,59.708,13.287
2017-10-26T07:13:37,42.805,6.029,4330,1995,195.244,59.707,13.287
2017-10-26T07:16:37,42.805,6.029,4330,1995,195.302,59.724,13.287
2017-10-26T07:19:37,42.805,6.029,4330,1995,195.261,59.712,13.287
2017-10-26T07:22:37,42.805,6.029,4330,1995,194.896,59.601,13.288
2017-10-26T07:25:37,42.805,6.029,4330,1995,195.205,59.695,13.287
2017-10-26T07:28:37,42.805,6.029,4330,1995,194.802,59.572,13.287
2017-10-26T07:31:37,42.805,6.029,4330,1995,194.773,59.563,13.287
2017-10-26T07:34:37,42.805,6.029,4330,1995,194.997,59.633,13.288
2017-10-26T07:37:37,42.805,6.029,4330,1995,195.016,59.638,13.287
2017-10-26T07:40:37,42.805,6.029,4330,1995,195.210,59.698,13.288
2017-10-26T07:43:37,42.805,6.029,4330,1995,194.831,59.582,13.288
2017-10-26T07:46:37,42.805,6.029,4330,1995,194.393,59.449,13.288
2017-10-26T07:49:37,42.805,6.029,4330,1995,194.726,59.549,13.287
2017-10-26T07:52:37,42.805,6.029,4330,1995,194.528,59.490,13.288
2017-10-26T07:55:37,42.805,6.029,4330,1995,194.546,59.498,13.290
2017-10-26T07:58:37,42.805,6.029,4330,1995,194.664,59.531,13.288
2017-10-26T08:01:37,42.805,6.029,4330,1995,195.002,59.633,13.287
2017-10-26T08:04:37,42.805,6.029,4330,1995,195.257,59.712,13.288
2017-10-26T08:07:37,42.805,6.029,4330,1995,194.910,59.606,13.288
2017-10-26T08:10:37,42.805,6.029,4330,1995,194.553,59.496,13.287
2017-10-26T08:13:37,42.805,6.029,4330,1995,194.306,59.423,13.289
2017-10-26T08:16:37,42.805,6.029,4330,1995,194.070,59.350,13.289
2017-10-26T08:19:37,42.805,6.029,4330,1995,193.714,59.242,13.289
2017-10-26T08:22:37,42.805,6.029,4330,1995,194.438,59.463,13.289
2017-10-26T08:25:37,42.805,6.029,4330,1995,194.060,59.348,13.290
2017-10-26T08:28:37,42.805,6.029,4330,1995,193.794,59.265,13.288
2017-10-26T08:31:37,42.805,6.029,4330,1995,193.632,59.214,13.287
2017-10-26T08:34:37,42.805,6.029,4330,1995,194.296,59.417,13.287
2017-10-26T08:37:37,42.805,6.029,4330,1995,194.494,59.479,13.288
2017-10-26T08:40:37,42.805,6.029,4330,1995,194.228,59.398,13.288
2017-10-26T08:43:37,42.805,6.029,4330,1995,193.887,59.293,13.288
2017-10-26T08:46:37,42.805,6.029,4330,1995,194.302,59.419,13.287
2017-10-26T08:49:37,42.805,6.029,4330,1995,194.558,59.498,13.288
2017-10-26T08:52:37,42.805,6.029,4330,1995,194.758,59.560,13.289
2017-10-26T08:55:37,42.805,6.029,4330,1995,194.475,59.474,13.288
2017-10-26T08:58:37,42.805,6.029,4330,1995,194.128,59.368,13.289
2017-10-26T09:01:37,42.805,6.029,4330,1995,194.264,59.409,13.288
2017-10-26T09:04:37,42.805,6.029,4330,1995,194.133,59.373,13.292
2017-10-26T09:07:37,42.805,6.029,4330,1995,194.408,59.453,13.288
2017-10-26T09:10:37,42.805,6.029,4330,1995,194.239,59.400,13.287
2017-10-26T09:13:37,42.805,6.029,4330,1995,194.040,59.342,13.290
2017-10-26T09:16:37,42.805,6.029,4330,1995,194.458,59.472,13.291
2017-10-26T09:19:37,42.805,6.029,4330,1995,194.485,59.478,13.289
2017-10-26T09:22:37,42.805,6.029,4330,1995,194.808,59.574,13.288
2017-10-26T09:25:37,42.805,6.029,4330,1995,194.606,59.512,13.287
2017-10-26T09:28:37,42.805,6.029,4330,1995,194.365,59.440,13.289
2017-10-26T09:31:37,42.805,6.029,4330,1995,194.546,59.498,13.290
2017-10-26T09:34:37,42.805,6.029,4330,1995,193.955,59.314,13.288
2017-10-26T09:37:37,42.805,6.029,4330,1995,193.597,59.205,13.288
2017-10-26T09:40:37,42.805,6.029,4330,1995,193.865,59.287,13.288
2017-10-26T09:43:37,42.805,6.029,4330,1995,194.142,59.372,13.288
2017-10-26T09:46:37,42.805,6.029,4330,1995,194.295,59.419,13.288
2017-10-26T09:49:37,42.805,6.029,4330,1995,194.020,59.334,13.288
2017-10-26T09:52:37,42.805,6.029,4330,1995,193.651,59.222,13.289
2017-10-26T09:55:37,42.805,6.029,4330,1995,192.963,59.012,13.289
2017-10-26T09:58:37,42.805,6.029,4330,1995,193.114,59.059,13.289
2017-10-26T10:01:37,42.805,6.029,4330,1995,193.015,59.027,13.288
2017-10-26T10:04:37,42.805,6.029,4330,1995,193.803,59.268,13.288
2017-10-26T10:07:37,42.805,6.029,4330,1995,193.419,59.150,13.288
2017-10-26T10:10:37,42.805,6.029,4330,1995,194.042,59.343,13.289
2017-10-26T10:13:37,42.805,6.029,4330,1995,194.217,59.396,13.290
2017-10-26T10:16:37,42.805,6.029,4330,1995,194.465,59.472,13.290
2017-10-26T10:19:37,42.805,6.029,4330,1995,193.955,59.314,13.288
2017-10-26T10:22:37,42.805,6.029,4330,1995,194.003,59.329,13.288
2017-10-26T10:25:37,42.805,6.029,4330,1995,193.704,59.240,13.290
2017-10-26T10:28:37,42.805,6.029,4330,1995,193.744,59.252,13.290
2017-10-26T10:31:37,42.805,6.029,4330,1995,194.003,59.330,13.289
2017-10-26T10:34:37,42.805,6.029,4330,1995,193.969,59.320,13.289
2017-10-26T10:37:37,42.805,6.029,4330,1995,193.752,59.252,13.288
2017-10-26T10:40:37,42.805,6.029,4330,1995,194.044,59.343,13.289
2017-10-26T10:43:37,42.805,6.029,4330,1995,193.848,59.281,13.288
2017-10-26T10:46:37,42.805,6.029,4330,1995,193.415,59.149,13.288
2017-10-26T10:49:37,42.805,6.029,4330,1995,194.031,59.338,13.288
2017-10-26T10:52:37,42.805,6.029,4330,1995,193.818,59.276,13.291
2017-10-26T10:55:37,42.805,6.029,4330,1995,194.476,59.475,13.289
2017-10-26T10:58:37,42.805,6.029,4330,1995,194.426,59.461,13.290
2017-10-26T11:01:37,42.805,6.029,4330,1995,194.424,59.459,13.289
2017-10-26T11:04:37,42.805,6.029,4330,1995,193.894,59.298,13.290
2017-10-26T11:07:37,42.805,6.029,4330,1995,193.984,59.323,13.288
2017-10-26T11:10:37,42.805,6.029,4330,1995,194.006,59.330,13.288
2017-10-26T11:13:37,42.805,6.029,4330,1995,194.121,59.367,13.290
2017-10-26T11:16:37,42.805,6.029,4330,1995,193.974,59.323,13.290
2017-10-26T11:19:37,42.805,6.029,4330,1995,193.365,59.135,13.289
2017-10-26T11:22:37,42.805,6.029,4330,1995,192.787,58.959,13.290
2017-10-26T11:25:37,42.805,6.029,4330,1995,192.890,58.990,13.289
2017-10-26T11:28:37,42.805,6.029,4330,1995,192.667,58.926,13.293
2017-10-26T11:31:37,42.805,6.029,4330,1995,192.906,58.994,13.288
2017-10-26T11:34:37,42.805,6.029,4330,1995,193.167,59.072,13.288
2017-10-26T11:37:37,42.805,6.029,4330,1995,193.071,59.043,13.288
2017-10-26T11:40:37,42.805,6.029,4330,1995,193.035,59.039,13.292
2017-10-26T11:43:37,42.805,6.029,4330,1995,193.012,59.028,13.290
2017-10-26T11:46:37,42.805,6.029,4330,1995,193.358,59.132,13.288
2017-10-26T11:49:37,42.805,6.029,4330,1995,193.681,59.229,13.287
2017-10-26T11:52:37,42.805,6.029,4330,1995,194.370,59.439,13.287
2017-10-26T11:55:37,42.805,6.029,4330,1995,194.679,59.534,13.287
2017-10-26T11:58:37,42.805,6.029,4330,1995,194.749,59.556,13.288
2017-10-26T12:01:37,42.805,6.029,4330,1995,194.894,59.600,13.287
2017-10-26T12:04:37,42.805,6.029,4330,1995,195.054,59.649,13.287
2017-10-26T12:07:37,42.805,6.029,4330,1995,195.243,59.707,13.287
2017-10-26T12:10:37,42.805,6.029,4330,1995,195.448,59.769,13.287
2017-10-26T12:13:37,42.805,6.029,4330,1995,195.323,59.731,13.287
2017-10-26T12:16:37,42.805,6.029,4330,1995,195.249,59.710,13.288
2017-10-26T12:19:37,42.805,6.029,4330,1995,195.152,59.682,13.289
2017-10-26T12:22:37,42.805,6.029,4330,1995,195.128,59.673,13.288
2017-10-26T12:25:37,42.805,6.029,4330,1995,194.988,59.630,13.288
2017-10-26T12:28:37,42.805,6.029,4330,1995,194.860,59.592,13.289
2017-10-26T12:31:37,42.805,6.029,4330,1995,194.818,59.578,13.288
2017-10-26T12:34:37,42.805,6.029,4330,1995,194.929,59.613,13.289
2017-10-26T12:37:37,42.805,6.029,4330,1995,194.978,59.626,13.287
2017-10-26T12:40:37,42.805,6.029,4330,1995,194.974,59.625,13.287
2017-10-26T12:43:37,42.805,6.029,4330,1995,194.928,59.612,13.288
2017-10-26T12:46:37,42.805,6.029,4330,1995,195.112,59.668,13.288
2017-10-26T12:49:37,42.805,6.029,4330,1995,195.342,59.737,13.287
2017-10-26T12:52:37,42.805,6.029,4330,1995,195.373,59.746,13.287
2017-10-26T12:55:37,42.805,6.029,4330,1995,195.145,59.677,13.287
2017-10-26T12:58:37,42.805,6.029,4330,1995,195.019,59.638,13.287
2017-10-26T13:01:37,42.805,6.029,4330,1995,194.956,59.619,13.287
2017-10-26T13:04:37,42.805,6.029,4330,1995,194.731,59.552,13.289
2017-10-26T13:07:37,42.805,6.029,4330,1995,194.717,59.547,13.288
2017-10-26T13:10:37,42.805,6.029,4330,1995,194.507,59.482,13.288
2017-10-26T13:13:37,42.805,6.029,4330,1995,194.510,59.482,13.287
2017-10-26T13:16:37,42.805,6.029,4330,1995,194.362,59.438,13.287
2017-10-26T13:19:37,42.805,6.029,4330,1995,194.171,59.381,13.288
2017-10-26T13:22:36,42.805,6.029,4330,1995,193.949,59.312,13.288
2017-10-26T13:25:36,42.805,6.029,4330,1995,193.863,59.286,13.288
2017-10-26T13:28:36,42.805,6.029,4330,1995,193.742,59.248,13.287
2017-10-26T13:31:36,42.805,6.029,4330,1995,193.926,59.304,13.287
2017-10-26T13:34:36,42.805,6.029,4330,1995,194.199,59.388,13.288
2017-10-26T13:37:36,42.805,6.029,4330,1995,194.417,59.455,13.288
2017-10-26T13:40:36,42.805,6.029,4330,1995,194.566,59.500,13.287
2017-10-26T13:43:36,42.805,6.029,4330,1995,194.370,59.440,13.287
2017-10-26T13:46:36,42.805,6.029,4330,1995,194.505,59.482,13.287
2017-10-26T13:49:36,42.805,6.029,4330,1995,194.728,59.551,13.288
2017-10-26T13:52:36,42.805,6.029,4330,1995,194.924,59.610,13.288
2017-10-26T13:55:36,42.805,6.029,4330,1995,195.089,59.660,13.287
2017-10-26T13:58:36,42.805,6.029,4330,1995,195.215,59.698,13.287
2017-10-26T14:01:36,42.805,6.029,4330,1995,195.378,59.748,13.287
2017-10-26T14:04:36,42.805,6.029,4330,1995,195.122,59.672,13.288
2017-10-26T14:07:36,42.805,6.029,4330,1995,195.048,59.647,13.287
2017-10-26T14:10:36,42.805,6.029,4330,1995,195.110,59.665,13.287
2017-10-26T14:13:36,42.805,6.029,4330,1995,195.234,59.705,13.288
2017-10-26T14:16:36,42.805,6.029,4330,1995,195.232,59.704,13.287
2017-10-26T14:19:36,42.805,6.029,4330,1995,194.839,59.584,13.288
2017-10-26T14:22:36,42.805,6.029,4330,1995,194.970,59.623,13.287
2017-10-26T14:25:36,42.805,6.029,4330,1995,195.241,59.708,13.289
2017-10-26T14:28:36,42.805,6.029,4330,1995,195.417,59.762,13.289
2017-10-26T14:31:36,42.805,6.029,4330,1995,195.482,59.781,13.288
2017-10-26T14:34:36,42.805,6.029,4330,1995,195.374,59.749,13.289
2017-10-26T14:37:36,42.805,6.029,4330,1995,195.226,59.703,13.288
2017-10-26T14:40:36,42.805,6.029,4330,1995,195.076,59.657,13.288
2017-10-26T14:43:36,42.805,6.029,4330,1995,194.797,59.571,13.288
2017-10-26T14:46:36,42.805,6.029,4330,1995,194.358,59.437,13.288
2017-10-26T14:49:36,42.805,6.029,4330,1995,194.855,59.592,13.290
2017-10-26T14:52:36,42.805,6.029,4330,1995,195.355,59.741,13.287
2017-10-26T14:55:36,42.805,6.029,4330,1995,195.540,59.797,13.287
2017-10-26T14:58:36,42.805,6.029,4330,1995,195.664,59.835,13.287
2017-10-26T15:01:36,42.805,6.029,4330,1995,195.687,59.843,13.287
2017-10-26T15:04:36,42.805,6.029,4330,1995,195.706,59.849,13.288
2017-10-26T15:07:36,42.805,6.029,4330,1995,195.774,59.870,13.288
2017-10-26T15:10:36,42.805,6.029,4330,1995,195.687,59.842,13.287
2017-10-26T15:13:36,42.805,6.029,4330,1995,195.813,59.881,13.287
2017-10-26T15:16:36,42.805,6.029,4330,1995,196.030,59.947,13.286
2017-10-26T15:19:36,42.805,6.029,4330,1995,196.143,59.982,13.287
2017-10-26T15:22:36,42.805,6.029,4330,1995,196.290,60.026,13.287
2017-10-26T15:25:36,42.805,6.029,4330,1995,196.326,60.037,13.287
2017-10-26T15:28:36,42.805,6.029,4330,1995,196.478,60.084,13.286
2017-10-26T15:31:36,42.805,6.029,4330,1995,196.473,60.082,13.286
2017-10-26T15:34:36,42.805,6.029,4330,1995,196.435,60.071,13.286
2017-10-26T15:37:36,42.805,6.029,4330,1995,196.531,60.099,13.286
2017-10-26T15:40:36,42.805,6.029,4330,1995,196.417,60.065,13.286
2017-10-26T15:43:36,42.805,6.029,4330,1995,196.463,60.079,13.286
2017-10-26T15:46:36,42.805,6.029,4330,1995,196.489,60.087,13.287
2017-10-26T15:49:36,42.805,6.029,4330,1995,196.529,60.099,13.286
2017-10-26T15:52:36,42.805,6.029,4330,1995,196.409,60.063,13.287
2017-10-26T15:55:36,42.805,6.029,4330,1995,196.447,60.074,13.287
2017-10-26T15:58:36,42.805,6.029,4330,1995,196.418,60.065,13.287
2017-10-26T16:01:36,42.805,6.029,4330,1995,196.593,60.119,13.287
2017-10-26T16:04:36,42.805,6.029,4330,1995,196.525,60.098,13.286
2017-10-26T16:07:36,42.805,6.029,4330,1995,196.669,60.142,13.286
2017-10-26T16:10:36,42.805,6.029,4330,1995,196.816,60.187,13.286
2017-10-26T16:13:36,42.805,6.029,4330,1995,196.671,60.142,13.286
2017-10-26T16:16:36,42.805,6.029,4330,1995,196.400,60.061,13.287
2017-10-26T16:19:36,42.805,6.029,4330,1995,196.108,59.971,13.287
2017-10-26T16:22:36,42.805,6.029,4330,1995,196.121,59.975,13.287
2017-10-26T16:25:36,42.805,6.029,4330,1995,196.136,59.980,13.287
2017-10-26T16:28:36,42.805,6.029,4330,1995,196.126,59.976,13.286
2017-10-26T16:31:36,42.805,6.029,4330,1995,196.209,60.002,13.287
2017-10-26T16:34:36,42.805,6.029,4330,1995,196.348,60.044,13.286
2017-10-26T16:37:36,42.805,6.029,4330,1995,196.491,60.087,13.286
2017-10-26T16:40:36,42.805,6.029,4330,1995,196.586,60.116,13.286
2017-10-26T16:43:36,42.805,6.029,4330,1995,196.650,60.136,13.286
2017-10-26T16:46:36,42.805,6.029,4330,1995,196.715,60.157,13.287
2017-10-26T16:49:36,42.805,6.029,4330,1995,196.815,60.186,13.286
2017-10-26T16:52:36,42.805,6.029,4330,1995,196.911,60.216,13.286
2017-10-26T16:55:36,42.805,6.029,4330,1995,196.767,60.172,13.286
2017-10-26T16:58:36,42.805,6.029,4330,1995,196.681,60.145,13.286
2017-10-26T17:01:36,42.805,6.029,4330,1995,196.559,60.108,13.286
2017-10-26T17:04:36,42.805,6.029,4330,1995,196.540,60.102,13.286
2017-10-26T17:07:36,42.805,6.029,4330,1995,196.681,60.146,13.286
2017-10-26T17:10:36,42.805,6.029,4330,1995,196.656,60.138,13.286
2017-10-26T17:13:36,42.805,6.029,4330,1995,196.606,60.123,13.286
2017-10-26T17:16:36,42.805,6.029,4330,1995,196.589,60.117,13.286
2017-10-26T17:19:36,42.805,6.029,4330,1995,196.579,60.114,13.286
2017-10-26T17:22:36,42.805,6.029,4330,1995,196.651,60.136,13.286
2017-10-26T17:25:36,42.805,6.029,4330,1995,196.675,60.143,13.286
2017-10-26T17:28:36,42.805,6.029,4330,1995,196.707,60.153,13.286
2017-10-26T17:31:36,42.805,6.029,4330,1995,196.793,60.179,13.286
2017-10-26T17:34:36,42.805,6.029,4330,1995,196.758,60.169,13.286
2017-10-26T17:37:36,42.805,6.029,4330,1995,196.740,60.164,13.286
2017-10-26T17:40:36,42.805,6.029,4330,1995,196.706,60.153,13.286
2017-10-26T17:43:36,42.805,6.029,4330,1995,196.783,60.177,13.286
2017-10-26T17:46:36,42.805,6.029,4330,1995,196.788,60.178,13.286
2017-10-26T17:49:36,42.805,6.029,4330,1995,196.817,60.187,13.286
2017-10-26T17:52:36,42.805,6.029,4330,1995,196.846,60.196,13.286
2017-10-26T17:55:36,42.805,6.029,4330,1995,196.861,60.200,13.286
2017-10-26T17:58:36,42.805,6.029,4330,1995,196.816,60.187,13.286
2017-10-26T18:01:36,42.805,6.029,4330,1995,196.750,60.166,13.286
2017-10-26T18:04:36,42.805,6.029,4330,1995,196.832,60.192,13.286
2017-10-26T18:07:36,42.805,6.029,4330,1995,196.898,60.212,13.286